SL-8 R/B

Last updated on Sat Aug 15 2026 00:02:07 GMT+0000 (Coordinated Universal Time)

1 21938U 92020B 26226.53603052 .00000120 00000+0 10897-3 0 9998 2 21938 82.9288 36.5024 0028285 214.9365 204.5762 13.75554361722835
UTC large
Height (km)
Speed (km/s)
/
Latitude / Longitude
Inclination (degrees)
Orbital Period (minutes)
Azimuth
Elevation
Range (km)
Doppler Factor

Next 0 passes for location: London (51.5072 / 0.1276)

No passes found over London.
SL-8 R/B